Weather History for Pensacola, FL

Change the Weather History Date:

Thursday, December 13, 2012

  Actual Average Record
Temperature  
Mean Temperature 52 °F 54 °F  
Max Temperature 64 °F 63 °F 79 °F (2001)
Min Temperature 39 °F 45 °F 11 °F (1962)
Degree Days  
Heating Degree Days 13 12  
Month to date heating degree days 44 135  
Since 1 July heating degree days 256 347  
Cooling Degree Days 0 0  
Month to date cooling degree days 16 7  
Year to date cooling degree days 3045 2603  
Growing Degree Days 2 (Base 50)    
Moisture  
Dew Point 40 °F    
Average Humidity 68    
Maximum Humidity 93    
Minimum Humidity 43    
Precipitation  
Precipitation 0.00 in 0.15 in 4.23 in (1885)
Month to date precipitation 0.22 2.02  
Year to date precipitation 64.76 62.74  
Snow  
Snow 0.00 in 0.00 in 0.00 in (2002)
Month to date snowfall 0.0 0.0  
Since 1 July snowfall 0.0 0.0  
Snow Depth 0.00 in    
Sea Level Pressure  
Sea Level Pressure 30.28 in    
Wind  
Wind Speed 6 mph (NNE)    
Max Wind Speed 13 mph    
Max Gust Speed 20 mph    
Visibility 10 miles    
Events      
T = Trace of Precipitation, MM = Missing Value Source: NWS Daily Summary

Daily Weather History Graph

Daily Weather History Graph

Search for Another Location

Airport:

Trip Planner

Search our weather history database for the weather conditions in past years. The results will help you decide how hot, cold, wet, or windy it might be!

Date:

Astronomy

Dec. 13, 2012 Rise Set
Actual Time 6:37 AM CST 4:49 PM CST
Civil Twilight 6:10 AM CST 5:15 PM CST
Nautical Twilight 5:40 AM CST 5:45 PM CST
Astronomical Twilight 5:11 AM CST 6:15 PM CST
Moon 6:46 AM CST (12/13) 5:29 PM CST (12/13)
Length of Visible Light 11h 04m
Length of Day
10h 11m
New Moon, 0% of the Moon is Illuminated
Dec 13
New Moon
Dec 19
First Quarter
Dec 28
Full
Jan 4
Last Quarter
Jan 11
New

Hourly Weather History & Observations

Time (CST) Temp. Windchill Dew Point Humidity Pressure Visibility Wind Dir Wind Speed Gust Speed Precip Events Conditions
12:53 AM 39.9 °F 35.1 °F 34.0 °F 79% 30.25 in 10.0 mi NNW 6.9 mph - N/A   Clear
1:53 AM 39.9 °F 34.5 °F 33.1 °F 77% 30.26 in 10.0 mi NNW 8.1 mph - N/A   Clear
2:53 AM 41.0 °F 35.2 °F 33.1 °F 73% 30.25 in 10.0 mi North 9.2 mph - N/A   Clear
3:53 AM 39.0 °F 34.8 °F 34.0 °F 82% 30.25 in 10.0 mi North 5.8 mph - N/A   Clear
4:53 AM 41.0 °F 36.4 °F 36.0 °F 82% 30.25 in 10.0 mi NNE 6.9 mph - N/A   Clear
5:53 AM 41.0 °F 37.1 °F 37.0 °F 86% 30.26 in 10.0 mi NNE 5.8 mph - N/A   Clear
6:53 AM 43.0 °F 38.8 °F 37.9 °F 82% 30.30 in 10.0 mi NNE 6.9 mph - N/A   Clear
7:53 AM 43.0 °F 38.2 °F 37.9 °F 82% 30.32 in 10.0 mi North 8.1 mph - N/A   Clear
8:53 AM 48.0 °F - 39.9 °F 74% 30.32 in 10.0 mi NNE 9.2 mph - N/A   Clear
9:53 AM 53.1 °F - 42.1 °F 66% 30.33 in 10.0 mi North 10.4 mph 17.3 mph N/A   Clear
10:53 AM 57.0 °F - 42.1 °F 57% 30.32 in 10.0 mi NNE 10.4 mph 17.3 mph N/A   Clear
11:53 AM 60.1 °F - 41.0 °F 49% 30.30 in 10.0 mi NNE 8.1 mph - N/A   Clear
12:53 PM 62.1 °F - 41.0 °F 46% 30.27 in 10.0 mi NE 5.8 mph - N/A   Clear
1:53 PM 63.0 °F - 41.0 °F 45% 30.25 in 10.0 mi North 9.2 mph - N/A   Clear
2:53 PM 64.0 °F - 41.0 °F 43% 30.23 in 10.0 mi NNE 8.1 mph - N/A   Clear
3:53 PM 63.0 °F - 43.0 °F 48% 30.24 in 10.0 mi NNE 4.6 mph - N/A   Clear
5:53 PM 52.0 °F - 44.1 °F 74% 30.26 in 10.0 mi NE 3.5 mph - N/A   Clear
6:53 PM 51.8 °F - 44.6 °F 76% 30.27 in 10.0 mi East 3.5 mph - N/A   Clear
7:53 PM 48.0 °F - 45.0 °F 89% 30.29 in 9.0 mi Calm Calm - N/A   Clear
8:53 PM 48.9 °F - 46.0 °F 90% 30.29 in 10.0 mi ENE 3.5 mph - N/A   Clear
9:53 PM 48.9 °F - 46.0 °F 90% 30.30 in 10.0 mi Calm Calm - N/A   Clear
10:53 PM 48.0 °F - 45.0 °F 89% 30.30 in 10.0 mi NE 4.6 mph - N/A   Clear
11:53 PM 48.2 °F - 44.6 °F 87% 30.29 in 10.0 mi NE 4.6 mph - N/A   Clear